Total_Precipitation_Accumulation
0.08 0.11 0.11 0.10 0.08 0.09 0.08 0.05 0.04 0.05 0.08 0.10 0.13 0.14 0.15 0.15 0.17 0.21 0.28 0.36 0.43 0.52 0.64 0.79 0.98 1.05 0.99
0.11 0.14 0.12 0.11 0.10 0.12 0.12 0.13 0.14 0.12 0.13 0.12 0.14 0.18 0.21 0.22 0.23 0.24 0.23 0.25 0.33 0.47 0.56 0.62 0.70 0.83 0.98
0.22 0.14 0.10 0.12 0.16 0.20 0.20 0.19 0.18 0.22 0.27 0.26 0.28 0.32 0.36 0.36 0.37 0.43 0.51 0.54 0.53 0.50 0.55 0.65 0.77 0.88 0.91
0.39 0.28 0.21 0.19 0.26 0.28 0.25 0.26 0.29 0.30 0.33 0.32 0.31 0.31 0.32 0.37 0.43 0.45 0.46 0.48 0.54 0.62 0.68 0.70 0.71 0.74 0.82
0.66 0.60 0.56 0.44 0.39 0.40 0.46 0.38 0.32 0.25 0.21 0.22 0.27 0.32 0.33 0.35 0.40 0.37 0.41 0.51 0.59 0.64 0.66 0.75 0.81 0.85 0.84
0.94 0.71 0.45 0.41 0.38 0.45 0.59 0.70 0.62 0.29 0.28 0.36 0.40 0.47 0.46 0.46 0.45 0.43 0.44 0.46 0.49 0.55 0.63 0.66 0.67 0.71 0.80
0.50 0.43 0.40 0.36 0.53 0.65 0.64 0.73 0.62 0.34 0.40 0.48 0.38 0.40 0.41 0.46 0.54 0.47 0.48 0.48 0.49 0.51 0.54 0.57 0.56 0.61 0.67
0.33 0.36 0.46 0.57 0.80 1.06 1.07 0.98 0.69 0.45 0.42 0.56 0.31 0.35 0.37 0.44 0.57 0.47 0.40 0.42 0.46 0.48 0.49 0.52 0.56 0.62 0.60
0.39 0.45 0.43 0.37 0.41 0.77 0.90 0.81 0.70 0.39 0.31 0.43 0.36 0.37 0.41 0.39 0.45 0.46 0.42 0.45 0.51 0.53 0.53 0.58 0.62 0.64 0.63
0.35 0.39 0.39 0.38 0.44 0.50 0.95 1.60 1.10 0.86 0.38 0.79 0.64 0.53 0.85 0.38 0.39 0.53 0.49 0.43 0.42 0.41 0.40 0.41 0.46 0.49 0.53
0.32 0.37 0.39 0.40 0.45 0.61 0.98 1.80 2.00 1.41 0.56 1.25 1.33 0.60 0.92 0.55 0.41 0.50 0.42 0.45 0.47 0.45 0.41 0.39 0.37 0.39 0.60
0.47 0.52 0.51 0.52 0.59 0.66 0.72 0.85 1.03 1.38 0.84 1.02 1.70 0.90 1.08 0.77 0.52 0.55 0.54 0.49 0.53 0.46 0.39 0.44 0.53 0.59 0.62
0.81 0.82 0.75 0.80 0.84 0.76 0.68 0.64 0.68 0.74 0.86 0.86 1.12 1.01 0.99 0.89 0.70 0.51 0.68 0.70 0.76 0.81 0.64 0.47 0.42 0.43 0.57
0.67 0.61 0.70 0.74 0.73 0.84 1.06 0.96 1.02 0.84 0.70 0.63 0.77 0.89 0.79 0.52 0.79 0.67 0.60 1.05 1.04 1.09 1.04 0.61 0.49 0.40 0.31
0.56 0.61 0.72 0.81 0.83 0.93 1.20 1.13 0.97 0.75 0.62 0.47 0.39 0.39 0.45 0.55 0.59 0.64 0.86 0.84 1.10 1.48 1.25 0.82 0.69 0.55 0.42
0.61 0.68 0.83 0.91 1.09 1.21 1.22 1.00 0.80 0.60 0.52 0.42 0.36 0.32 0.31 0.29 0.59 0.89 0.78 0.89 1.18 1.36 1.34 0.68 0.72 0.81 0.63
0.91 0.93 0.98 1.05 1.12 1.14 0.93 0.69 0.50 0.36 0.21 0.15 0.28 0.42 0.47 0.26 0.29 0.68 0.95 0.94 0.81 0.86 0.91 0.62 0.69 0.88 0.69